When you browse on this site, cookies collect data to enhance your experience and personalize the content and advertising you see.
Visit our Privacy Policy to learn more. By continuing to use the site, you agree to this use of cookies and data.
  • In Schweiz
  • Länderverzeichnis
  • Für 7 Tage
  • Wassertemperatur
  • Satellitenkarten
  • Wetterkarte
  • Widgets
  • user-avatar
    Anmelden

    Stündliche Wetter Serdyuky

    Heute, 18 November, Sonntag

    Zeit Temperatur Niederschläge Wind Luftdruck Luftfeuchtigkeit
    00:00 -2°C° 0 mm 1 m/S 758 mmHg 46%
    01:00 -2°C° 0 mm 1 m/S 758 mmHg 46%
    02:00 -3°C° 0 mm 0 m/S 757 mmHg 45%
    03:00 -2°C° 0 mm 1 m/S 756 mmHg 45%
    04:00 -2°C° 0 mm 1 m/S 756 mmHg 44%
    05:00 -2°C° 0 mm 1 m/S 755 mmHg 44%
    06:00 -2°C° 0 mm 1 m/S 754 mmHg 43%
    07:00 -4°C° 0 mm 2 m/S 754 mmHg 43%
    08:00 -5°C° 0 mm 2 m/S 753 mmHg 42%
    09:00 -3°C° 0 mm 2 m/S 753 mmHg 38%
    10:00 -2°C° 0 mm 2 m/S 752 mmHg 35%
    11:00 +1°C° 0 mm 2 m/S 752 mmHg 31%
    12:00 +1°C° 0 mm 2 m/S 751 mmHg 34%
    13:00 +1°C° 0 mm 2 m/S 751 mmHg 37%
    14:00 +2°C° 0 mm 2 m/S 751 mmHg 40%
    15:00 +2°C° 0 mm 1 m/S 750 mmHg 45%
    16:00 +1°C° 0 mm 1 m/S 750 mmHg 51%
    17:00 0°C° 0 mm 1 m/S 750 mmHg 57%
    18:00 0°C° 0 mm 1 m/S 750 mmHg 60%
    19:00 -2°C° 0 mm 0 m/S 750 mmHg 64%
    20:00 -2°C° 0 mm 0 m/S 750 mmHg 68%
    21:00 -2°C° 0 mm 0 m/S 750 mmHg 70%
    22:00 -1°C° 0 mm 1 m/S 750 mmHg 71%
    23:00 -1°C° 0 mm 1 m/S 750 mmHg 73%

    Morgen, 19 November, Montag

    Zeit Temperatur Niederschläge Wind Luftdruck Luftfeuchtigkeit
    00:00 -1°C° 0 mm 1 m/S 750 mmHg 71%
    01:00 -1°C° 0 mm 1 m/S 750 mmHg 69%
    02:00 -1°C° 0 mm 1 m/S 750 mmHg 66%
    03:00 -1°C° 0 mm 1 m/S 750 mmHg 66%
    04:00 -3°C° 0 mm 2 m/S 750 mmHg 65%
    05:00 -3°C° 0 mm 2 m/S 750 mmHg 64%
    06:00 -4°C° 0 mm 2 m/S 750 mmHg 63%
    07:00 -4°C° 0 mm 2 m/S 750 mmHg 62%
    08:00 -4°C° 0 mm 2 m/S 751 mmHg 61%
    09:00 -4°C° 0 mm 3 m/S 751 mmHg 57%
    10:00 -2°C° 0 mm 3 m/S 751 mmHg 53%
    11:00 -1°C° 0 mm 3 m/S 751 mmHg 49%
    12:00 -1°C° 0 mm 3 m/S 751 mmHg 49%
    13:00 -1°C° 0 mm 4 m/S 751 mmHg 49%
    14:00 -1°C° 0 mm 4 m/S 751 mmHg 49%
    15:00 -2°C° 0 mm 4 m/S 751 mmHg 52%
    16:00 -2°C° 0 mm 3 m/S 751 mmHg 56%
    17:00 -2°C° 0 mm 3 m/S 751 mmHg 59%
    18:00 -2°C° 0 mm 3 m/S 751 mmHg 61%
    19:00 -4°C° 0 mm 3 m/S 752 mmHg 63%
    20:00 -4°C° 0 mm 3 m/S 752 mmHg 65%
    21:00 -4°C° 0 mm 3 m/S 752 mmHg 68%
    22:00 -4°C° 0 mm 3 m/S 752 mmHg 70%
    23:00 -4°C° 0 mm 3 m/S 752 mmHg 72%

    übermorgen, 20 November, Dienstag

    Zeit Temperatur Niederschläge Wind Luftdruck Luftfeuchtigkeit
    00:00 -4°C° 0 mm 3 m/S 752 mmHg 74%
    01:00 -4°C° 0 mm 3 m/S 752 mmHg 76%
    02:00 -4°C° 0 mm 3 m/S 752 mmHg 78%
    03:00 -5°C° 0 mm 3 m/S 752 mmHg 81%
    04:00 -5°C° 0 mm 3 m/S 752 mmHg 84%
    05:00 -5°C° 0 mm 3 m/S 752 mmHg 86%
    06:00 -5°C° 0 mm 3 m/S 752 mmHg 87%
    07:00 -5°C° 0 mm 3 m/S 753 mmHg 88%
    08:00 -5°C° 0 mm 3 m/S 753 mmHg 89%
    09:00 -4°C° 0 mm 3 m/S 753 mmHg 84%
    10:00 -2°C° 0 mm 3 m/S 753 mmHg 79%
    11:00 -1°C° 0 mm 3 m/S 753 mmHg 75%
    12:00 -1°C° 0 mm 3 m/S 753 mmHg 73%
    13:00 0°C° 0 mm 3 m/S 753 mmHg 72%
    14:00 0°C° 0 mm 3 m/S 753 mmHg 71%
    15:00 -1°C° 0 mm 3 m/S 752 mmHg 77%
    16:00 -2°C° 0 mm 3 m/S 752 mmHg 83%
    17:00 -4°C° 0 mm 3 m/S 752 mmHg 89%
    18:00 -4°C° 0 mm 3 m/S 752 mmHg 89%
    19:00 -4°C° 0 mm 4 m/S 752 mmHg 89%
    20:00 -4°C° 0 mm 4 m/S 752 mmHg 89%
    21:00 -4°C° 0 mm 4 m/S 752 mmHg 87%
    22:00 -4°C° 0 mm 4 m/S 753 mmHg 85%
    23:00 -4°C° 0 mm 4 m/S 753 mmHg 83%

    21 November, Mittwoch

    Zeit Temperatur Niederschläge Wind Luftdruck Luftfeuchtigkeit
    00:00 -4°C° 0 mm 4 m/S 753 mmHg 83%
    01:00 -4°C° 0 mm 3 m/S 753 mmHg 83%
    02:00 -4°C° 0 mm 3 m/S 753 mmHg 82%
    03:00 -4°C° 0 mm 3 m/S 753 mmHg 83%
    04:00 -4°C° 0 mm 3 m/S 752 mmHg 84%
    05:00 -4°C° 0 mm 3 m/S 752 mmHg 84%
    06:00 -4°C° 0 mm 3 m/S 752 mmHg 85%
    07:00 -5°C° 0 mm 3 m/S 752 mmHg 86%
    08:00 -5°C° 0 mm 3 m/S 753 mmHg 87%
    09:00 -4°C° 0 mm 3 m/S 753 mmHg 83%
    10:00 -2°C° 0 mm 3 m/S 753 mmHg 79%
    11:00 -3°C° 0 mm 4 m/S 753 mmHg 74%
    12:00 -2°C° 0 mm 4 m/S 753 mmHg 73%
    13:00 -1°C° 0 mm 3 m/S 753 mmHg 71%
    14:00 0°C° 0 mm 3 m/S 753 mmHg 69%
    15:00 -1°C° 0 mm 3 m/S 753 mmHg 73%
    16:00 -2°C° 0 mm 3 m/S 753 mmHg 78%
    17:00 -4°C° 0 mm 3 m/S 753 mmHg 82%
    18:00 -4°C° 0 mm 3 m/S 753 mmHg 84%
    19:00 -4°C° 0 mm 3 m/S 753 mmHg 85%
    20:00 -5°C° 0 mm 3 m/S 753 mmHg 86%
    21:00 -4°C° 0 mm 2 m/S 753 mmHg 87%
    22:00 -4°C° 0 mm 2 m/S 754 mmHg 87%
    23:00 -4°C° 0 mm 2 m/S 754 mmHg 88%

    22 November, Donnerstag

    Zeit Temperatur Niederschläge Wind Luftdruck Luftfeuchtigkeit
    00:00 -5°C° 0 mm 2 m/S 754 mmHg 87%
    01:00 -5°C° 0 mm 2 m/S 754 mmHg 87%
    02:00 -5°C° 0 mm 2 m/S 754 mmHg 87%
    03:00 -5°C° 0 mm 2 m/S 754 mmHg 87%
    04:00 -5°C° 0 mm 2 m/S 754 mmHg 87%
    05:00 -5°C° 0 mm 2 m/S 754 mmHg 87%
    06:00 -5°C° 0 mm 2 m/S 754 mmHg 87%
    07:00 -5°C° 0 mm 2 m/S 754 mmHg 88%
    08:00 -3°C° 0 mm 1 m/S 755 mmHg 88%
    09:00 -4°C° 0 mm 2 m/S 755 mmHg 82%
    10:00 -3°C° 0 mm 2 m/S 755 mmHg 76%
    11:00 -2°C° 0 mm 2 m/S 755 mmHg 70%
    12:00 -2°C° 0 mm 2 m/S 755 mmHg 69%
    13:00 -1°C° 0 mm 2 m/S 755 mmHg 67%
    14:00 -1°C° 0 mm 2 m/S 755 mmHg 66%
    15:00 -2°C° 0 mm 2 m/S 755 mmHg 71%
    16:00 -3°C° 0 mm 2 m/S 755 mmHg 77%
    17:00 -2°C° 0 mm 1 m/S 755 mmHg 83%
    18:00 -2°C° 0 mm 1 m/S 756 mmHg 84%
    19:00 -2°C° 0 mm 1 m/S 756 mmHg 86%
    20:00 -3°C° 0 mm 1 m/S 756 mmHg 87%
    21:00 -3°C° 0 mm 1 m/S 756 mmHg 88%
    22:00 -3°C° 0 mm 1 m/S 757 mmHg 88%
    23:00 -3°C° 0 mm 1 m/S 757 mmHg 89%

    23 November, Freitag

    Zeit Temperatur Niederschläge Wind Luftdruck Luftfeuchtigkeit
    00:00 -3°C° 0 mm 1 m/S 757 mmHg 89%
    01:00 -3°C° 0 mm 1 m/S 757 mmHg 89%
    02:00 -3°C° 0 mm 1 m/S 757 mmHg 90%
    03:00 -3°C° 0 mm 1 m/S 757 mmHg 90%
    04:00 -3°C° 0 mm 1 m/S 757 mmHg 90%
    05:00 -3°C° 0 mm 1 m/S 757 mmHg 90%
    06:00 -4°C° 0 mm 1 m/S 757 mmHg 91%
    07:00 -5°C° 0 mm 0 m/S 757 mmHg 91%
    08:00 -5°C° 0 mm 0 m/S 757 mmHg 91%
    09:00 -4°C° 0 mm 0 m/S 758 mmHg 84%
    10:00 -2°C° 0 mm 0 m/S 758 mmHg 77%
    11:00 -1°C° 0 mm 0 m/S 758 mmHg 70%
    12:00 -1°C° 0 mm 0 m/S 758 mmHg 67%
    13:00 0°C° 0 mm 0 m/S 757 mmHg 64%
    14:00 0°C° 0 mm 0 m/S 757 mmHg 61%
    15:00 0°C° 0 mm 1 m/S 757 mmHg 65%
    16:00 -1°C° 0 mm 1 m/S 757 mmHg 70%
    17:00 -2°C° 0 mm 1 m/S 757 mmHg 75%
    18:00 -2°C° 0 mm 1 m/S 756 mmHg 76%
    19:00 -2°C° 0 mm 1 m/S 756 mmHg 76%
    20:00 -4°C° 0 mm 2 m/S 756 mmHg 77%
    21:00 -4°C° 0 mm 2 m/S 756 mmHg 77%
    22:00 -4°C° 0 mm 2 m/S 755 mmHg 77%
    23:00 -4°C° 0 mm 2 m/S 755 mmHg 76%
    Mehr zeigen